THY30T LTFM-EGLL

Flight info

Callsign THY30T
Flight time N/A
Altitude 38000
Route TUDBU1E/36 TUDBU Q26 ETUBA DCT NAVOD DCT INVED DCT BEGLA DCT DEXIT DCT INBED DCT BOMBI DCT ADKUV DCT BUB L608 LOGAN
Aircraft B77W/H-SDE1E2E3FGHIJ2J3J4J5M1RWXY/LB1D1

Departure

Time N/A
Airport İstanbul Airport (LTFM)

Arrival

Time 2026-05-04 19:11
Airport London Heathrow Airport (EGLL)
Time Latitude Longitude Altitude Speed Heading
2026-05-04 18:22 50.89149 4.60296 37969 ft 463 kts 282°
2026-05-04 18:23 50.91438 4.50717 37969 ft 468 kts 293°
2026-05-04 18:23 50.94720 4.41759 37974 ft 471 kts 298°
2026-05-04 18:24 50.98178 4.32931 37970 ft 471 kts 298°
2026-05-04 18:24 51.01611 4.24058 37967 ft 471 kts 298°
2026-05-04 18:25 51.05011 4.15153 37968 ft 471 kts 298°
2026-05-04 18:25 51.08396 4.06232 37967 ft 471 kts 298°
2026-05-04 18:26 51.11767 3.97321 37968 ft 471 kts 298°
2026-05-04 18:26 51.15140 3.88375 37968 ft 471 kts 298°
2026-05-04 18:27 51.18503 3.79427 37989 ft 470 kts 298°
2026-05-04 18:27 51.21868 3.70442 38106 ft 475 kts 298°
2026-05-04 18:28 51.23558 3.65918 38445 ft 475 kts 298°
2026-05-04 18:28 51.25245 3.61386 38796 ft 473 kts 298°
2026-05-04 18:28 51.26919 3.56873 39114 ft 472 kts 298°
2026-05-04 18:28 51.28586 3.52364 39405 ft 471 kts 298°
2026-05-04 18:29 51.29688 3.49382 39590 ft 471 kts 298°
2026-05-04 18:29 51.31350 3.44878 39849 ft 470 kts 298°
2026-05-04 18:29 51.34624 3.35802 39962 ft 469 kts 294°
2026-05-04 18:30 51.38181 3.21432 39995 ft 461 kts 288°
2026-05-04 18:31 51.40426 3.11831 40000 ft 460 kts 288°
2026-05-04 18:31 51.42691 3.02245 40003 ft 460 kts 288°
2026-05-04 18:32 51.44940 2.92640 40005 ft 460 kts 288°
2026-05-04 18:32 51.47182 2.83016 40012 ft 461 kts 288°
2026-05-04 18:33 51.49421 2.73361 40010 ft 462 kts 288°
2026-05-04 18:33 51.51657 2.63683 40007 ft 463 kts 288°
2026-05-04 18:34 51.53888 2.53986 40006 ft 463 kts 288°
2026-05-04 18:34 51.56106 2.44275 40008 ft 463 kts 288°
2026-05-04 18:35 51.58310 2.34539 40006 ft 463 kts 288°
2026-05-04 18:35 51.60502 2.24912 39619 ft 452 kts 288°
2026-05-04 18:35 51.61570 2.20218 38961 ft 455 kts 288°
2026-05-04 18:36 51.62659 2.15417 38222 ft 458 kts 287°
2026-05-04 18:36 51.63747 2.10602 37596 ft 456 kts 287°
2026-05-04 18:36 51.64826 2.05825 37164 ft 451 kts 287°
2026-05-04 18:36 51.65889 2.01121 36799 ft 444 kts 287°
2026-05-04 18:37 51.66938 1.96466 36402 ft 439 kts 287°
2026-05-04 18:37 51.67971 1.91867 35973 ft 435 kts 287°
2026-05-04 18:37 51.68996 1.87297 35517 ft 432 kts 287°
2026-05-04 18:37 51.70009 1.82766 35093 ft 428 kts 287°
2026-05-04 18:38 51.71010 1.78275 34703 ft 424 kts 287°
2026-05-04 18:38 51.72002 1.73823 34329 ft 419 kts 287°
2026-05-04 18:38 51.72982 1.69416 33925 ft 415 kts 287°
2026-05-04 18:38 51.73951 1.65048 33448 ft 412 kts 287°
2026-05-04 18:39 51.74696 1.60645 32896 ft 404 kts 273°
2026-05-04 18:39 51.74602 1.56190 32330 ft 396 kts 261°
2026-05-04 18:39 51.74266 1.51789 31844 ft 394 kts 261°
2026-05-04 18:39 51.73946 1.47414 31403 ft 391 kts 261°
2026-05-04 18:40 51.73641 1.43074 30983 ft 388 kts 261°
2026-05-04 18:40 51.73346 1.38753 30533 ft 387 kts 261°
2026-05-04 18:40 51.73057 1.34450 30105 ft 384 kts 261°
2026-05-04 18:40 51.72772 1.30178 29617 ft 382 kts 261°
2026-05-04 18:41 51.72490 1.25938 29153 ft 379 kts 261°
2026-05-04 18:41 51.72209 1.21731 28683 ft 376 kts 261°
2026-05-04 18:41 51.71928 1.17558 28207 ft 373 kts 261°
2026-05-04 18:41 51.71648 1.13411 27743 ft 371 kts 261°
2026-05-04 18:42 51.71367 1.09284 27286 ft 369 kts 261°
2026-05-04 18:42 51.71088 1.05183 26846 ft 367 kts 261°
2026-05-04 18:42 51.70809 1.01114 26415 ft 364 kts 261°
2026-05-04 18:42 51.70529 0.97062 25988 ft 362 kts 261°
2026-05-04 18:43 51.70249 0.93032 25528 ft 362 kts 261°
2026-05-04 18:43 51.69969 0.89007 25078 ft 361 kts 261°
2026-05-04 18:43 51.69689 0.84992 24667 ft 359 kts 261°
2026-05-04 18:43 51.69410 0.81009 24289 ft 357 kts 261°
2026-05-04 18:44 51.69131 0.77046 23905 ft 355 kts 261°
2026-05-04 18:44 51.68946 0.74428 23643 ft 354 kts 261°
2026-05-04 18:44 51.68573 0.69170 23053 ft 352 kts 261°
2026-05-04 18:44 51.68295 0.65265 22620 ft 350 kts 261°
2026-05-04 18:45 51.68017 0.61384 22204 ft 347 kts 261°
2026-05-04 18:45 51.67741 0.57534 21792 ft 345 kts 261°
2026-05-04 18:45 51.67464 0.53703 21380 ft 343 kts 261°
2026-05-04 18:45 51.67208 0.50190 21010 ft 342 kts 261°
2026-05-04 18:46 51.66931 0.46400 20614 ft 339 kts 261°
2026-05-04 18:46 51.66655 0.42654 20337 ft 334 kts 262°
2026-05-04 18:46 51.66386 0.38988 20160 ft 326 kts 261°
2026-05-04 18:46 51.66120 0.35400 19924 ft 320 kts 261°
2026-05-04 18:47 51.65859 0.31881 19648 ft 315 kts 261°
2026-05-04 18:47 51.65598 0.28391 19296 ft 313 kts 262°
2026-05-04 18:47 51.65337 0.24902 18918 ft 313 kts 261°
2026-05-04 18:47 51.65076 0.21431 18570 ft 311 kts 262°
2026-05-04 18:48 51.64819 0.18018 18431 ft 302 kts 261°
2026-05-04 18:48 51.64569 0.14708 18275 ft 294 kts 261°
2026-05-04 18:48 51.64329 0.11489 18112 ft 285 kts 261°
2026-05-04 18:48 51.64093 0.08349 17843 ft 281 kts 261°
2026-05-04 18:49 51.63859 0.05240 17479 ft 279 kts 262°
2026-05-04 18:49 51.63482 0.02215 17050 ft 275 kts 245°
2026-05-04 18:49 51.62370 -0.00250 16601 ft 274 kts 218°
2026-05-04 18:49 51.60804 -0.01524 16260 ft 271 kts 192°
2026-05-04 18:50 51.58991 -0.01506 16020 ft 263 kts 164°
2026-05-04 18:50 51.57435 -0.00111 15890 ft 253 kts 136°
2026-05-04 18:50 51.56568 0.02180 15719 ft 241 kts 106°
2026-05-04 18:50 51.56487 0.04898 15551 ft 244 kts 85°
2026-05-04 18:51 51.56691 0.07608 15412 ft 252 kts 83°
2026-05-04 18:51 51.56921 0.10432 15252 ft 255 kts 83°
2026-05-04 18:51 51.57152 0.13234 15060 ft 253 kts 83°
2026-05-04 18:51 51.57381 0.16036 14894 ft 251 kts 83°
2026-05-04 18:52 51.57608 0.18798 14712 ft 250 kts 83°
2026-05-04 18:52 51.57834 0.21547 14540 ft 248 kts 83°
2026-05-04 18:52 51.58058 0.24298 14374 ft 247 kts 83°
2026-05-04 18:52 51.58277 0.27035 14174 ft 248 kts 83°
2026-05-04 18:53 51.58585 0.29759 13915 ft 247 kts 69°
2026-05-04 18:53 51.59575 0.31980 13641 ft 247 kts 38°
2026-05-04 18:53 51.61133 0.33075 13381 ft 247 kts
2026-05-04 18:53 51.62812 0.32745 13120 ft 245 kts 336°
2026-05-04 18:54 51.64143 0.31096 12852 ft 243 kts 306°
2026-05-04 18:54 51.64755 0.28603 12605 ft 241 kts 276°
2026-05-04 18:54 51.64730 0.25916 12376 ft 240 kts 265°
2026-05-04 18:54 51.64578 0.23237 12120 ft 240 kts 264°
2026-05-04 18:55 51.64414 0.20561 11865 ft 240 kts 264°
2026-05-04 18:55 51.64083 0.15310 11354 ft 231 kts 264°
2026-05-04 18:55 51.63918 0.12752 11092 ft 229 kts 264°
2026-05-04 18:56 51.63756 0.10239 10853 ft 227 kts 264°
2026-05-04 18:56 51.63591 0.07695 10620 ft 225 kts 263°
2026-05-04 18:56 51.63379 0.05204 10365 ft 224 kts 261°
2026-05-04 18:56 51.63138 0.02728 10137 ft 224 kts 261°
2026-05-04 18:57 51.62895 0.00262 9899 ft 222 kts 261°
2026-05-04 18:57 51.62654 -0.02178 9658 ft 220 kts 261°
2026-05-04 18:57 51.62440 -0.04448 9401 ft 219 kts 261°
2026-05-04 18:57 51.62213 -0.06869 9139 ft 218 kts 261°
2026-05-04 18:58 51.61988 -0.09271 8882 ft 217 kts 261°
2026-05-04 18:58 51.61758 -0.11685 8612 ft 219 kts 261°
2026-05-04 18:58 51.61526 -0.14076 8373 ft 220 kts 261°
2026-05-04 18:58 51.61286 -0.16543 8136 ft 221 kts 261°
2026-05-04 18:59 51.61050 -0.18976 7876 ft 218 kts 261°
2026-05-04 18:59 51.60815 -0.21378 7613 ft 216 kts 261°
2026-05-04 18:59 51.60581 -0.23749 7373 ft 213 kts 261°
2026-05-04 18:59 51.60358 -0.26001 7153 ft 210 kts 261°
2026-05-04 19:00 51.60128 -0.28305 7084 ft 207 kts 261°
2026-05-04 19:00 51.59897 -0.30608 7034 ft 212 kts 261°
2026-05-04 19:00 51.59663 -0.32965 7031 ft 214 kts 261°
2026-05-04 19:00 51.59439 -0.35224 7023 ft 215 kts 261°
2026-05-04 19:01 51.59203 -0.37602 7023 ft 216 kts 261°
2026-05-04 19:01 51.58968 -0.39958 7021 ft 217 kts 261°
2026-05-04 19:01 51.58728 -0.42345 7027 ft 216 kts 261°
2026-05-04 19:01 51.58489 -0.44721 7022 ft 214 kts 261°
2026-05-04 19:02 51.58250 -0.47079 7015 ft 214 kts 261°
2026-05-04 19:02 51.58010 -0.49452 6894 ft 217 kts 261°
2026-05-04 19:02 51.57770 -0.51832 6649 ft 215 kts 261°
2026-05-04 19:02 51.57533 -0.54160 6402 ft 212 kts 261°
2026-05-04 19:03 51.57295 -0.56488 6130 ft 210 kts 261°
2026-05-04 19:03 51.57054 -0.58819 5804 ft 215 kts 261°
2026-05-04 19:03 51.56804 -0.61215 5517 ft 218 kts 261°
2026-05-04 19:03 51.56551 -0.63612 5223 ft 218 kts 261°
2026-05-04 19:04 51.56295 -0.66009 4927 ft 217 kts 261°
2026-05-04 19:04 51.56038 -0.68399 4615 ft 217 kts 261°
2026-05-04 19:04 51.55776 -0.70784 4304 ft 217 kts 261°
2026-05-04 19:04 51.55509 -0.73171 4001 ft 217 kts 261°
2026-05-04 19:05 51.55239 -0.75557 3689 ft 217 kts 261°
2026-05-04 19:05 51.54824 -0.77870 3340 ft 216 kts 240°
2026-05-04 19:05 51.53756 -0.79453 3072 ft 205 kts 201°
2026-05-04 19:05 51.52864 -0.79775 3044 ft 199 kts 182°
2026-05-04 19:06 51.51084 -0.79912 3013 ft 198 kts 181°
2026-05-04 19:06 51.49721 -0.80046 3011 ft 194 kts 180°
2026-05-04 19:06 51.48409 -0.79862 2991 ft 190 kts 154°
2026-05-04 19:06 51.47496 -0.78491 2989 ft 179 kts 111°
2026-05-04 19:07 51.47403 -0.76568 3003 ft 176 kts 78°
2026-05-04 19:07 51.47584 -0.74612 3002 ft 180 kts 83°
2026-05-04 19:07 51.47646 -0.72609 3005 ft 176 kts 86°
2026-05-04 19:07 51.47665 -0.70644 2819 ft 181 kts 87°
2026-05-04 19:08 51.47675 -0.68611 2580 ft 178 kts 87°
2026-05-04 19:08 51.47683 -0.66620 2354 ft 178 kts 88°
2026-05-04 19:08 51.47690 -0.64663 2099 ft 175 kts 87°
2026-05-04 19:08 51.47697 -0.62738 1855 ft 168 kts 87°
2026-05-04 19:09 51.47703 -0.60939 1656 ft 156 kts 87°
2026-05-04 19:09 51.47710 -0.59231 1444 ft 151 kts 86°
2026-05-04 19:09 51.47716 -0.57518 1254 ft 155 kts 86°
2026-05-04 19:09 51.47722 -0.55796 1021 ft 150 kts 86°
2026-05-04 19:10 51.47727 -0.54179 818 ft 140 kts 86°
2026-05-04 19:10 51.47733 -0.52687 623 ft 134 kts 88°
2026-05-04 19:10 51.47738 -0.51139 417 ft 136 kts 87°
2026-05-04 19:10 51.47748 -0.49630 228 ft 135 kts 88°
2026-05-04 19:11 51.47747 -0.48143 118 ft 135 kts 87°
2026-05-04 19:11 51.47758 -0.46741 100 ft 114 kts 90°
2026-05-04 19:11 51.47760 -0.45652 91 ft 56 kts 89°
2026-05-04 19:11 51.47738 -0.45210 98 ft 19 kts 127°
2026-05-04 19:12 51.47651 -0.45167 96 ft 4 kts 186°
2026-05-04 19:12 51.47600 -0.45290 95 ft 0 kts 267°
2026-05-04 19:13 51.47599 -0.45305 95 ft 3 kts 267°
2026-05-04 19:13 51.47598 -0.45357 92 ft 7 kts 267°
2026-05-04 19:13 51.47590 -0.45446 94 ft 9 kts 242°
2026-05-04 19:14 51.47530 -0.45448 95 ft 10 kts 142°
2026-05-04 19:14 51.47508 -0.45397 95 ft 11 kts 110°
2026-05-04 19:14 51.47506 -0.45271 93 ft 12 kts 90°
2026-05-04 19:14 51.47506 -0.45130 93 ft 13 kts 89°
2026-05-04 19:15 51.47508 -0.44976 93 ft 15 kts 89°
2026-05-04 19:15 51.47510 -0.44807 93 ft 16 kts 89°
2026-05-04 19:15 51.47512 -0.44634 93 ft 17 kts 91°
2026-05-04 19:15 51.47509 -0.44602 94 ft 1 kts 107°
2026-05-04 19:16 51.47499 -0.44579 95 ft 5 kts 133°
2026-05-04 19:16 51.47469 -0.44562 92 ft 9 kts 178°
2026-05-04 19:16 51.47389 -0.44559 90 ft 13 kts 179°
2026-05-04 19:16 51.47266 -0.44558 93 ft 14 kts 180°
2026-05-04 19:17 51.47200 -0.44557 90 ft 15 kts 180°
2026-05-04 19:17 51.47061 -0.44558 90 ft 16 kts 181°
2026-05-04 19:17 51.46986 -0.44559 91 ft 16 kts 179°
2026-05-04 19:17 51.46888 -0.44552 91 ft 12 kts 164°
2026-05-04 19:18 51.46863 -0.44454 93 ft 9 kts 89°
2026-05-04 19:18 51.46863 -0.44415 93 ft 0 kts 89°